Total_Precipitation_Accumulation
1.06 1.15 1.18 0.99 0.73 0.61 0.59 0.56 0.52 0.53 0.59 0.66 0.61 0.59 0.65 0.70 0.67 0.76 0.87 0.97 1.09 1.20 1.22 1.26 1.33 1.35 1.46 1.51 1.62 1.69 1.73 1.69 1.46 1.30 1.18 1.20 1.21 1.19 1.15 1.07 1.13 1.17 1.06
0.97 0.93 0.76 0.59 0.48 0.43 0.39 0.34 0.30 0.28 0.30 0.36 0.38 0.38 0.46 0.59 0.59 0.65 0.70 0.72 0.83 0.95 1.00 1.06 1.08 1.10 1.22 1.31 1.38 1.47 1.60 1.64 1.53 1.37 1.26 1.20 1.10 1.11 1.26 1.30 1.28 1.20 1.20
0.62 0.61 0.52 0.43 0.39 0.34 0.29 0.27 0.25 0.24 0.24 0.27 0.30 0.32 0.35 0.45 0.56 0.61 0.63 0.61 0.62 0.65 0.71 0.76 0.82 0.89 1.06 1.14 1.17 1.27 1.42 1.47 1.55 1.44 1.37 1.30 1.15 1.08 1.24 1.27 1.33 1.49 1.41
0.40 0.39 0.38 0.33 0.32 0.30 0.29 0.31 0.26 0.23 0.23 0.22 0.20 0.21 0.28 0.39 0.48 0.56 0.60 0.58 0.56 0.58 0.61 0.62 0.65 0.69 0.79 0.91 1.00 1.19 1.36 1.49 1.53 1.47 1.45 1.41 1.34 1.24 1.31 1.40 1.46 1.56 1.60
0.28 0.28 0.32 0.32 0.29 0.26 0.27 0.26 0.24 0.22 0.19 0.14 0.12 0.14 0.21 0.27 0.32 0.46 0.50 0.51 0.55 0.54 0.56 0.60 0.61 0.60 0.62 0.66 0.65 0.85 1.07 1.31 1.40 1.45 1.47 1.50 1.45 1.41 1.36 1.49 1.56 1.68 1.77
0.18 0.18 0.23 0.27 0.24 0.24 0.23 0.22 0.20 0.20 0.18 0.14 0.11 0.12 0.13 0.14 0.22 0.28 0.36 0.46 0.52 0.58 0.59 0.62 0.59 0.55 0.59 0.59 0.58 0.60 0.72 0.89 1.08 1.19 1.27 1.33 1.39 1.49 1.61 1.62 1.59 1.65 1.71
0.17 0.19 0.23 0.22 0.17 0.16 0.16 0.14 0.11 0.13 0.14 0.12 0.10 0.12 0.12 0.11 0.11 0.13 0.25 0.41 0.53 0.57 0.55 0.68 0.73 0.67 0.65 0.69 0.71 0.64 0.59 0.60 0.76 0.97 1.10 1.15 1.22 1.32 1.55 1.60 1.60 1.64 1.56
0.17 0.18 0.21 0.20 0.17 0.13 0.14 0.13 0.09 0.10 0.11 0.12 0.13 0.14 0.11 0.08 0.08 0.09 0.15 0.30 0.45 0.50 0.50 0.63 0.87 0.90 0.79 0.73 0.78 0.87 0.79 0.64 0.64 0.70 0.87 1.00 1.05 1.21 1.53 1.75 1.70 1.50 1.45
0.19 0.18 0.18 0.19 0.18 0.16 0.13 0.12 0.11 0.13 0.14 0.12 0.11 0.13 0.11 0.09 0.09 0.09 0.13 0.24 0.35 0.40 0.43 0.55 0.71 0.86 0.79 0.73 0.73 0.81 0.85 0.75 0.68 0.70 0.67 0.76 0.89 1.07 1.32 1.59 1.70 1.66 1.49
0.17 0.18 0.19 0.18 0.16 0.16 0.14 0.14 0.14 0.16 0.17 0.15 0.13 0.11 0.10 0.08 0.09 0.10 0.11 0.17 0.23 0.23 0.29 0.45 0.61 0.59 0.55 0.61 0.72 0.83 0.92 0.77 0.67 0.76 0.75 0.78 0.81 1.00 1.32 1.54 1.67 1.65 1.53
0.19 0.23 0.24 0.22 0.20 0.22 0.22 0.18 0.17 0.17 0.19 0.18 0.17 0.14 0.13 0.11 0.10 0.11 0.13 0.15 0.19 0.18 0.23 0.37 0.45 0.41 0.40 0.48 0.60 0.72 0.86 0.73 0.74 0.89 0.93 0.91 0.98 1.03 1.14 1.29 1.50 1.62 1.54
0.21 0.24 0.28 0.28 0.27 0.27 0.27 0.24 0.22 0.22 0.23 0.24 0.24 0.22 0.21 0.19 0.15 0.13 0.15 0.17 0.19 0.20 0.25 0.31 0.33 0.30 0.32 0.36 0.41 0.52 0.63 0.71 0.80 0.93 1.01 0.97 0.94 1.00 1.05 1.10 1.20 1.32 1.32
0.25 0.26 0.28 0.30 0.29 0.28 0.27 0.25 0.22 0.20 0.20 0.23 0.24 0.24 0.24 0.23 0.19 0.17 0.16 0.17 0.20 0.21 0.24 0.28 0.29 0.30 0.33 0.34 0.36 0.44 0.58 0.77 0.94 0.95 0.88 0.85 0.89 0.94 0.95 1.07 1.14 1.19 1.21
0.27 0.28 0.28 0.27 0.27 0.27 0.27 0.26 0.23 0.21 0.19 0.20 0.23 0.23 0.22 0.23 0.18 0.17 0.19 0.19 0.20 0.22 0.25 0.26 0.26 0.31 0.34 0.33 0.39 0.52 0.68 0.88 0.97 0.89 0.83 0.73 0.74 0.87 0.92 0.94 0.98 1.00 1.06
0.26 0.27 0.27 0.25 0.23 0.23 0.23 0.24 0.25 0.24 0.24 0.25 0.27 0.27 0.22 0.21 0.24 0.24 0.22 0.21 0.19 0.18 0.23 0.29 0.33 0.39 0.44 0.52 0.62 0.70 0.72 0.76 0.82 0.75 0.79 0.72 0.67 0.74 0.78 0.79 0.81 0.78 0.79
0.23 0.24 0.24 0.25 0.23 0.21 0.22 0.24 0.30 0.33 0.34 0.28 0.26 0.24 0.23 0.21 0.25 0.22 0.22 0.22 0.20 0.21 0.26 0.34 0.42 0.50 0.57 0.65 0.71 0.71 0.70 0.71 0.74 0.72 0.70 0.69 0.63 0.63 0.65 0.67 0.71 0.74 0.78
0.18 0.20 0.21 0.22 0.23 0.23 0.25 0.26 0.27 0.27 0.28 0.25 0.22 0.21 0.20 0.21 0.20 0.19 0.20 0.21 0.21 0.22 0.25 0.35 0.55 0.61 0.59 0.64 0.69 0.68 0.60 0.54 0.55 0.56 0.55 0.53 0.51 0.52 0.56 0.58 0.60 0.66 0.68
0.21 0.26 0.27 0.26 0.26 0.27 0.29 0.27 0.24 0.24 0.25 0.24 0.21 0.19 0.18 0.18 0.18 0.17 0.18 0.19 0.19 0.19 0.20 0.28 0.41 0.46 0.50 0.56 0.57 0.55 0.49 0.42 0.41 0.40 0.39 0.40 0.42 0.44 0.45 0.49 0.50 0.50 0.56
0.21 0.24 0.27 0.29 0.29 0.28 0.27 0.26 0.26 0.24 0.24 0.26 0.25 0.23 0.24 0.22 0.21 0.20 0.19 0.18 0.18 0.20 0.23 0.29 0.34 0.38 0.39 0.39 0.40 0.40 0.39 0.40 0.40 0.39 0.39 0.40 0.40 0.42 0.41 0.41 0.44 0.48 0.49
0.22 0.25 0.25 0.27 0.28 0.28 0.27 0.28 0.30 0.30 0.30 0.30 0.27 0.28 0.28 0.25 0.23 0.21 0.21 0.22 0.23 0.24 0.24 0.25 0.27 0.27 0.28 0.29 0.31 0.34 0.36 0.39 0.40 0.41 0.40 0.42 0.44 0.45 0.45 0.43 0.43 0.44 0.46
0.21 0.24 0.27 0.27 0.26 0.26 0.29 0.30 0.33 0.34 0.35 0.35 0.36 0.39 0.36 0.31 0.29 0.29 0.28 0.27 0.27 0.27 0.26 0.25 0.25 0.26 0.28 0.30 0.34 0.35 0.35 0.38 0.41 0.42 0.44 0.45 0.48 0.49 0.48 0.48 0.46 0.46 0.47
0.26 0.25 0.26 0.26 0.27 0.27 0.28 0.28 0.29 0.29 0.32 0.37 0.40 0.43 0.42 0.35 0.33 0.34 0.33 0.31 0.28 0.28 0.28 0.28 0.28 0.29 0.32 0.34 0.37 0.39 0.40 0.43 0.48 0.50 0.52 0.52 0.54 0.54 0.53 0.53 0.53 0.53 0.53
0.24 0.26 0.27 0.27 0.25 0.28 0.29 0.26 0.28 0.29 0.32 0.36 0.37 0.38 0.37 0.35 0.35 0.34 0.34 0.33 0.33 0.33 0.33 0.33 0.33 0.33 0.34 0.38 0.41 0.44 0.46 0.48 0.56 0.63 0.66 0.65 0.63 0.62 0.60 0.59 0.58 0.60 0.59
0.21 0.23 0.24 0.26 0.27 0.26 0.25 0.25 0.26 0.28 0.30 0.33 0.35 0.36 0.36 0.36 0.35 0.35 0.36 0.35 0.35 0.34 0.35 0.37 0.37 0.37 0.38 0.40 0.44 0.48 0.51 0.54 0.59 0.65 0.72 0.74 0.70 0.65 0.63 0.60 0.57 0.57 0.61
0.19 0.22 0.24 0.27 0.29 0.28 0.28 0.29 0.29 0.29 0.29 0.30 0.31 0.33 0.33 0.33 0.34 0.36 0.37 0.37 0.36 0.35 0.36 0.40 0.42 0.43 0.42 0.43 0.45 0.48 0.56 0.58 0.57 0.58 0.64 0.70 0.69 0.67 0.66 0.65 0.63 0.63 0.66
0.21 0.23 0.25 0.27 0.28 0.29 0.30 0.30 0.31 0.32 0.32 0.32 0.35 0.37 0.37 0.37 0.36 0.35 0.36 0.37 0.37 0.36 0.35 0.36 0.37 0.38 0.39 0.40 0.42 0.48 0.53 0.50 0.51 0.55 0.58 0.64 0.70 0.71 0.72 0.74 0.73 0.74 0.74